Regional Weather Roundup
Issued by NWS Charleston, SC

Current Version | Previous Version | Graphics & Text | Print | Product List | Glossary On
Versions: 1 2 3 4 5 6 7 8 9 10 11 12 13 14 15 16 17 18 19 20 21 22 23 24 25 26 27 28 29 30 31 32 33 34 35 36 37 38 39 40 41 42 43 44 45 46 47 48 49 50
000
ASUS42 KCHS 301727
RWRCHS

REGIONAL WEATHER ROUNDUP
NATIONAL WEATHER SERVICE CHARLESTON SC
100 PM EDT THU JUL 30 2015

NOTE: "FAIR" INDICATES FEW OR NO CLOUDS BELOW 12,000 FEET WITH NO
SIGNIFICANT WEATHER AND/OR OBSTRUCTIONS TO VISIBILITY.

NOT ALL STATIONS ARE QUALITY CONTROLLED BY THE NATIONAL
WEATHER SERVICE. USE DATA WITH CAUTION...ESPECIALLY
DEWPOINT OBSERVATIONS.

SCZ027-030-031-034>040-042>050-301800-
...SOUTHEAST SOUTH CAROLINA...

CITY           SKY/WX    TMP DP  RH WIND       PRES   REMARKS
N CHARLESTON   MOSUNNY   90  72  55 CALM      29.95F HX  97
WATERFRONT PRK   N/A     86  78  77 E7        29.94S HX  98
MOUNT PLEASANT LGT RAIN  90  79  70 CALM      29.95S HX 105
JOHNS ISLAND   FAIR      93  73  52 CALM      29.95F HX 102
PINOPOLIS      NOT AVBL
MONCKS CORNER  FAIR      93  72  49 NE5       29.95F HX 100
SUMMERVILLE    FAIR      93  72  49 CALM      29.95F HX 100
BEAUFORT MCAS  MOSUNNY   93  67  42 E3        29.96F HX  96
BEAUFORT ARPT  FAIR      91  70  49 CALM      29.95F HX  97
HILTON HEAD IS MOSUNNY   90  79  70 SE3       29.98F HX 105
WALTERBORO     MOSUNNY   97  64  34 S3        29.95F HX  99
ALLENDALE      FAIR      93  70  46 W7        29.95F HX  99

...SOUTHERN MIDLANDS AND PEE DEE...

CITY           SKY/WX    TMP DP  RH WIND       PRES   REMARKS
GEORGETOWN     NOT AVBL
KINGSTREE      NOT AVBL
ORANGEBURG     SUNNY     93  69  45 CALM      29.96F HX  98
BARNWELL       PTSUNNY   97  72  44 S5        29.95F HX 105
AIKEN          PTSUNNY   90  68  48 CALM      30.00F HX  93
MANNING        FAIR      93  64  38 CALM      29.94F HX  95
COLUMBIA       MOSUNNY   95  71  45 MISG      29.94F HX 102
SUMTER         MOSUNNY   96  69  42 SE7       29.93F HX 101
FLORENCE       SUNNY     94  69  44 VRB6      29.95F HX  99
MYRTLE BEACH   SUNNY     90  73  58 SE7       29.96F HX  98
N MYRTLE BEACH SUNNY     91  69  48 N7        29.94F HX  96

$$

GAZ063-065-086>088-099>101-113>116-118-119-134>141-150-301800-
...SOUTHEAST GEORGIA...

CITY           SKY/WX    TMP DP  RH WIND       PRES   REMARKS
SAVANNAH ARPT  MOSUNNY   90  69  50 SW5       29.97F HX  94
HUNTER AAF     SUNNY     92  78  63 VRB3      29.95F HX 106
FORT STEWART   MOSUNNY   94  71  48 SE6       29.95F HX 101
STATESBORO     MOSUNNY   91  76  61 SW3       29.97F HX 103
SYLVANIA       MOSUNNY   94  76  55 CALM      29.97F HX 107
CLAXTON        FAIR      91  73  55 SW5       29.96F HX 100

...CSRA...CENTRAL AND FAR SOUTHEAST GEORGIA...

CITY           SKY/WX    TMP DP  RH WIND       PRES   REMARKS
THOMSON        MOSUNNY   94  77  56 CALM      30.01S HX 108
AUGUSTA-BUSH   SUNNY     92  74  55 VRB3      29.95F HX 101
AUGUSTA-DANIEL SUNNY     93  73  52 MISG      29.97F HX 102
SWAINSBORO     FAIR      91  79  66 SE6       29.98F HX 107
VIDALIA        CLOUDY    88  77  70 S3        29.98F HX 100
EASTMAN        FAIR      93  78  59 E3        29.99F HX 108
HAZLEHURST     FAIR      89  78  70 CALM      29.97F HX 104
ALMA           PTSUNNY   87  77  72 VRB3      29.98F HX  99
WAYCROSS       PTSUNNY   91  81  70 SW5       29.98F HX 110
JESUP          FAIR      95  73  49 CALM      29.97F HX 105
BAXLEY         FAIR      90  77  66 CALM      29.97F HX 102
BRUNSWICK      PTSUNNY   90  75  62 CALM      29.98F HX 100
SAINT SIMONS   SUNNY     87  75  67 SE8       29.98F HX  96

$$

SCZ027-028-034-036>038-045-046-048>050-GAZ119-141-301800-
...LAKE AND SUPPLEMENTAL COASTAL OBSERVATIONS...

STATION/POSITION TIME  TEMP    WIND        PRES    WAVE   SWELL
                       AIR SEA DIR/SP/G            HT/PER HT/PER/DIR
                 (UTC) (F)     (DEG/KT/KT) (MB)    (FT/S) (FT/S/D)
UPR LAKE MARION  NOT AVBL
WINYAH BAY       1645   83     110/  7     1013.0F
LAKE MURRAY      1600   86     200/  5/  6 1014.2S
ACE BASIN NERRS  1600   93      70/  1     1015.0S
FORT PULASKI     1700   87 87  110/  3/  6 1015.4F
SAPELO ISLAND    1700   91     130/  5     1015.0S

$$

ANZ835-935-AMZ111-154-330-350-352-354-370-450-454-472-301800-
...C-MAN AND BUOY OBSERVATIONS...

STATION/POSITION TIME  TEMP    WIND        PRES    WAVE   SWELL
                       AIR SEA DIR/SP/G            HT/PER HT/PER/DIR
                 (UTC) (F)     (DEG/KT/KT) (MB)    (FT/S) (FT/S/D)
BUOY 41004       1650   82 85  360/ 12/ 14 1013.6F   3/ 8   3/ 8
BUOY 41008       1650   82 84   80/  4/  6 1015.8R   2/ 5   2/ 60/ 5
FOLLY BEACH CMAN 1700   84     120/  4/  6 1014.7F
CAPERS NEARSHORE 1608   82      80/  6/  8 1014.9F
FRIPP NEARSHORE  1600   86      60/  4/  4 1014.9R


STATION/POSITION TIME  TEMP    WIND        PRES    WAVE   SWELL
                       AIR SEA DIR/SP/G            HT/PER HT/PER/DIR
                 (UTC) (F)     (DEG/KT/KT) (MB)    (FT/S) (FT/S/D)
5E ST. MARYS GA  1621      84                N/A     2/ 5
FRYING PAN BUOY  1650   82 85  360/ 10/ 12 1014.2F   4/ 8   3/170/ 8
BUOY 41025       1650   84 85  170/ 17/ 19 1015.1S   4/ 5   2/110/ 8
CAPE LOOKOUT NC  1700   83     170/  9/ 11 1013.9F
BUOY 41002       1650   82 81  190/ 21/ 27 1014.9F   8/ 8
BUOY 41010       1620   82 84  240/ 14/ 16 1016.2R
ST AUGUSTINE FL  1700   81 83  100/  5/  6 1016.0F


$$


USA.gov is the U.S. government's official web portal to all federal, state and local government web resources and services.